Regional Weather Roundup
Issued by NWS Northern Indiana

Home | Current Version | Previous Version | Text Only | Print | Product List | Glossary Off
Versions: 1 2 3 4 5 6 7 8 9 10 11 12 13 14 15 16 17 18 19 20 21 22 23 24 25 26 27 28 29 30 31 32 33 34 35 36 37 38 39 40 41 42 43 44 45 46 47 48 49 50

000
ASUS43 KIWX 211610
RWRIWX

KIWX WEATHER ROUNDUP
NATIONAL WEATHER SERVICE NORTHERN INDIANA
1200 PM EDT THU SEP 21 2017

NOTE: "FAIR" INDICATES FEW OR NO CLOUDS BELOW 12,000 FEET WITH NO
SIGNIFICANT WEATHER AND/OR OBSTRUCTIONS TO VISIBILITY.

* THESE STATIONS ARE NOT UNDER NWS QUALITY CONTROL. THEY ALSO MAY NOT
  REPORT WEATHER SUCH AS PRECIPITATION OR FOG.

INZ001>027-211700-
NORTHERN INDIANA

CITY           SKY/WX    TMP DP  RH WIND       PRES   REMARKS
GARY*          MOSUNNY   84  68  58 S3        30.05S
VALPARAISO     MOSUNNY   84  73  69 SE8       30.06S
LAPORTE*       SUNNY     82  72  72 S5        30.06F
KNOX*          SUNNY     82  72  69 S5        30.05F
SOUTH BEND     MOSUNNY   81  73  76 S6        30.06S
ELKHART*       SUNNY     82  72  69 S7        30.07R
GOSHEN         SUNNY     83  70  64 S8        30.07S
LOGANSPORT*    SUNNY     82  72  69 SW7       30.08F
WARSAW*        SUNNY     82  72  69 SW5       30.08S
AUBURN*        SUNNY     84  70  61 S3        30.09S
FORT WAYNE     MOSUNNY   85  72  65 SW7       30.09S
HUNTINGTON*    SUNNY     86  72  64 W7        30.08S
PERU/GRISSOM   SUNNY     85  74  68 SW6       30.07F

$$
INZ028>050-211700-
CENTRAL INDIANA

CITY           SKY/WX    TMP DP  RH WIND       PRES   REMARKS
LAFAYETTE      SUNNY     83  73  72 CALM      30.06F
KOKOMO*        SUNNY     85  74  69 SW7       30.10S
MUNCIE*        SUNNY     88  71  57 W8        30.10S
INDIANAPOLIS   MOSUNNY   85  71  63 SW7       30.09F

$$
MIZ043>046-050>051-056>058-064>065-071>073-077>080-211700-
SOUTHWEST LOWER MICHIGAN

CITY           SKY/WX    TMP DP  RH WIND       PRES   REMARKS
BATTLE CREEK   MOSUNNY   85  71  63 SW8       30.08S
BENTON HARBOR  SUNNY     84  71  65 SW7       30.04R
COLDWATER*     SUNNY     85  71  63 W3        30.08S
HILLSDALE*     CLOUDY    84  70  61 S3        30.10R
HOLLAND        SUNNY     84  69  60 SW9       30.06R
GRAND RAPIDS   PTSUNNY   85  70  60 SW6       30.05R
KALAMAZOO      SUNNY     84  70  62 S9        30.06S
STURGIS*       SUNNY     84  72  65 S7        30.07S
THREE RIVERS*  FAIR      85  72  65 S8        30.07S

$$
OHZ001>008-015>018-024>025-211700-
NORTHWEST OHIO

CITY           SKY/WX    TMP DP  RH WIND       PRES   REMARKS
WAUSEON*       FAIR      84  72  65 S3        30.08F
DEFIANCE       SUNNY     84  70  62 VRB3      30.08F
FINDLAY        SUNNY     86  70  58 W8        30.08F
TOLEDO EXPRESS   N/A     84  74  71 W3        30.08S
TOLEDO METCALF SUNNY     84  71  65 W7        30.09F
LIMA           SUNNY     83  72  69 VRB3      30.10S

$$
AND FOR LAKE MICHIGAN COASTAL AND OPEN LAKE BUOY OBSERVATIONS

STATION/POSITION TEMP    WIND        PRES    VSBY  WAVE
                 AIR SEA DIR/SP/G                  HT/PER
                 (F)     (DEG/KT/KT) (MB)    (MI)  (FT/S)
CALUMET HARBOR    82     200/  5/  8 1016.3R
MICHIGAN CITY     80     170/  5/  6   N/A
BURNS HARBOR      82     200/  6/  8 1017.3S
SAINT JOSEPH      78     210/  5/  6 1017.9
SOUTH LAKE BUOY   71 69  290/  4/  4 1017.1R         1/ 3
4 MI NW BRIDGMAN  73 69  290/  4/  6 1017.1          1
MICHIGAN CITY     76 71  170/  4/  4   N/A           0

$$
&&




USA.gov is the U.S. government's official web portal to all federal, state and local government web resources and services.